TimeCDT,TemperatureF,Dew PointF,Humidity,Sea Level PressureIn,VisibilityMPH,Wind Direction,Wind SpeedMPH,Gust SpeedMPH,PrecipitationIn,Events,Conditions,WindDirDegrees,DateUTC
12:53 AM,46.0,35.1,66,30.05,10.0,Variable,3.5,-,N/A,,Clear,0,2012-10-29 05:53:00
1:53 AM,44.1,35.1,71,30.05,10.0,Variable,3.5,-,N/A,,Clear,0,2012-10-29 06:53:00
2:53 AM,44.1,35.1,71,30.05,10.0,Variable,4.6,-,N/A,,Clear,0,2012-10-29 07:53:00
3:53 AM,45.0,34.0,65,30.04,10.0,NNW,8.1,17.3,N/A,,Clear,330,2012-10-29 08:53:00
4:53 AM,44.1,34.0,68,30.06,10.0,Variable,6.9,-,N/A,,Clear,0,2012-10-29 09:53:00
5:53 AM,42.1,34.0,73,30.07,10.0,Variable,4.6,-,N/A,,Clear,0,2012-10-29 10:53:00
6:53 AM,39.9,34.0,79,30.08,10.0,NNW,4.6,-,N/A,,Clear,330,2012-10-29 11:53:00
7:53 AM,42.1,34.0,73,30.09,10.0,NNW,9.2,-,N/A,,Clear,330,2012-10-29 12:53:00
8:53 AM,46.0,35.1,66,30.11,10.0,North,10.4,16.1,N/A,,Clear,350,2012-10-29 13:53:00
9:53 AM,48.9,35.1,59,30.10,10.0,NNW,11.5,18.4,N/A,,Clear,330,2012-10-29 14:53:00
10:53 AM,53.1,34.0,48,30.08,10.0,NNW,10.4,19.6,N/A,,Clear,340,2012-10-29 15:53:00
11:53 AM,55.9,32.0,40,30.07,10.0,NNW,11.5,23.0,N/A,,Clear,330,2012-10-29 16:53:00
12:53 PM,57.0,32.0,39,30.03,10.0,NNW,13.8,25.3,N/A,,Clear,340,2012-10-29 17:53:00
1:53 PM,59.0,30.0,33,29.99,10.0,NW,12.7,23.0,N/A,,Clear,320,2012-10-29 18:53:00
2:53 PM,60.1,30.9,33,29.99,10.0,NNW,12.7,24.2,N/A,,Clear,340,2012-10-29 19:53:00
3:53 PM,59.0,30.9,35,29.98,10.0,North,13.8,24.2,N/A,,Clear,350,2012-10-29 20:53:00
4:53 PM,57.9,33.1,39,29.97,10.0,NNW,13.8,20.7,N/A,,Clear,340,2012-10-29 21:53:00
5:53 PM,54.0,33.1,45,29.99,10.0,NW,5.8,-,N/A,,Clear,310,2012-10-29 22:53:00
6:53 PM,51.1,33.1,50,29.99,10.0,NW,4.6,-,N/A,,Clear,310,2012-10-29 23:53:00
7:53 PM,48.9,33.1,54,30.00,10.0,NW,4.6,-,N/A,,Clear,310,2012-10-30 00:53:00
8:53 PM,46.9,33.1,59,30.01,10.0,Variable,4.6,-,N/A,,Clear,0,2012-10-30 01:53:00
9:53 PM,46.0,32.0,58,30.02,10.0,Variable,4.6,-,N/A,,Clear,0,2012-10-30 02:53:00
10:53 PM,44.1,32.0,63,30.03,10.0,NNW,3.5,-,N/A,,Clear,330,2012-10-30 03:53:00
11:53 PM,44.1,32.0,63,30.01,10.0,Variable,3.5,-,N/A,,Clear,0,2012-10-30 04:53:00